Zurück zum Katalog

GALILEO 14

26B

AktivNavigationMEO
NORAD 41549·PAYLOAD·🇪🇺 EU

Gestartet May 24, 2016 von Guiana Space Centre

Loading…

Nächste Überflüge (nächste 24 Stunden)

TLE

AktuellSource: CelesTrak SupGP

Epoche: Sep 13, 2026, 23:59 UTC

1 41549C 16030A   26256.99979167  .00000000  00000+0  00000+0 0  2565
2 41549  55.0750 219.2532 0003867 334.2904  51.8414  1.70473257    10

Verfolge GALILEO 14 in Echtzeit mit AllMySat

Download on the App Store